077  
NZUS14 KPDT 240910  
HWRPDT  
PENDLETON HOURLY WEATHER ROUNDUP  
NATIONAL WEATHER SERVICE PENDLETON OREGON  
200 AM PDT MON JUN 24 2024  
 
NOTE: "FAIR" INDICATES FEW OR NO CLOUDS BELOW 12,000 FEET WITH NO  
SIGNIFICANT WEATHER AND/OR OBSTRUCTIONS TO VISIBILITY.  
   
..OREGON STATIONS
 
 
 
CITY SKY/WX TMP DP RH WIND PRES REMARKS
 
BAKER CITY PTCLDY 55 35 47 W6 30.01S  
HERMISTON CLEAR 57 44 62 SW9 30.00R  
HEPPNER NOT AVBL  
LA GRANDE PTCLDY 56 37 49 W14 30.02S  
MEACHAM PTCLDY 42 36 79 CALM 30.06  
PENDLETON PTCLDY 58 42 55 SW8 30.02R  
REDMOND CLEAR 52 39 61 W3 30.03S  
THE DALLES CLEAR 61 47 59 NW14G21 30.00F  
   
..WASHINGTON STATIONS
 
 
 
CITY SKY/WX TMP DP RH WIND PRES REMARKS
 
ELLENSBURG PTCLDY 54 44 69 NW6 29.99S  
EPHRATA PTCLDY 60 37 42 NW9G21 29.93S  
HANFORD NOT AVBL  
MOSES LAKE PTCLDY 57 42 57 W7 29.96R  
PASCO CLEAR 58 45 62 CALM 29.99R  
PULLMAN CLEAR 52 40 63 SW5 30.01R  
STAMPEDE PASS FOG 43 43 100 VRB3 30.07 VSB 1/4  
WALLA WALLA PTCLDY 57 44 62 S9 30.01R  
WENATCHEE PTCLDY 59 41 51 W13 29.95S  
YAKIMA CLEAR 55 41 59 SW3 29.99R  
 

 
 
HOURLY ROUNDUP FOR PHONE RECORDING  
200 AM PDT MON JUN 24 2024  
   
..IN THE COLUMBIA BASIN
 
 
 
CITY SKY/WX TMP DP RH WIND PRES REMARKS
 
PENDLETON PTCLDY 58 42 55 SW8 30.02R  
WALLA WALLA PTCLDY 57 44 62 S9 30.01R  
PASCO CLEAR 58 45 62 CALM 29.99R  
HERMISTON CLEAR 57 44 62 SW9 30.00R  
   
..IN THE BLUE MOUNTAINS
 
 
 
CITY SKY/WX TMP DP RH WIND PRES REMARKS
 
MEACHAM PTCLDY 42 36 79 CALM 30.06  
LA GRANDE PTCLDY 56 37 49 W14 30.02S  
BAKER CITY PTCLDY 55 35 47 W6 30.01S  
   
..ALONG THE EAST SLOPES OF THE CASCADES
 
 
 
CITY SKY/WX TMP DP RH WIND PRES REMARKS
 
REDMOND CLEAR 52 39 61 W3 30.03S  
THE DALLES CLEAR 61 47 59 NW14G21 30.00F  
YAKIMA CLEAR 55 41 59 SW3 29.99R  
   
..ELSEWHERE
 
 
 
CITY SKY/WX TMP DP RH WIND PRES REMARKS
 
SPOKANE PTCLDY 55 38 52 SW13 29.94R  
BOISE CLEAR 71 44 37 W12 29.89R  
PORTLAND PTCLDY 57 48 72 NW12 30.09R  
SEATTLE PTCLDY 53 47 79 SW6 30.09S  
 

 
 
 
CLICK HERE TO GO TO PREVIOUS BULLETINS.

The Nexlab OR Page
The Nexlab WA Page Main Text Page